• In Uzbekistan
  • List of Countries
  • For 7 days
  • Water Temperature
  • Satellite Maps
  • Weather Map
  • Weather Widgets
  • user-avatar
    Login

    Hourly Weather Nuuk

    Today, 13 December, Wednesday

    Time Temperature Precipitation Wind Pressure Humidity
    00:00 -8°C° 0.3 mm 4 mps 749 mmHg 92%
    01:00 -8°C° 0.2 mm 4 mps 750 mmHg 93%
    02:00 -8°C° 0.2 mm 4 mps 751 mmHg 93%
    03:00 -7°C° 0 mm 3 mps 751 mmHg 93%
    04:00 -7°C° 0.3 mm 3 mps 752 mmHg 93%
    05:00 -7°C° 0.3 mm 3 mps 753 mmHg 94%
    06:00 -8°C° 0.3 mm 4 mps 754 mmHg 94%
    07:00 -8°C° 0.2 mm 4 mps 755 mmHg 93%
    08:00 -8°C° 0.2 mm 4 mps 756 mmHg 92%
    09:00 -9°C° 0 mm 4 mps 757 mmHg 90%
    10:00 -8°C° 0.1 mm 3 mps 757 mmHg 89%
    11:00 -8°C° 0.1 mm 3 mps 758 mmHg 88%
    12:00 -8°C° 0.1 mm 2 mps 759 mmHg 87%
    13:00 -8°C° 0.1 mm 2 mps 760 mmHg 87%
    14:00 -9°C° 0.1 mm 2 mps 760 mmHg 87%
    15:00 -9°C° 0.1 mm 2 mps 761 mmHg 88%
    16:00 -9°C° 0.1 mm 2 mps 762 mmHg 87%
    17:00 -10°C° 0.1 mm 2 mps 762 mmHg 87%
    18:00 -10°C° 0.1 mm 2 mps 763 mmHg 87%
    19:00 -10°C° 0.1 mm 2 mps 763 mmHg 87%
    20:00 -10°C° 0.1 mm 2 mps 764 mmHg 86%
    21:00 -12°C° 0.1 mm 2 mps 764 mmHg 86%
    22:00 -12°C° 0 mm 2 mps 764 mmHg 86%
    23:00 -12°C° 0 mm 2 mps 765 mmHg 85%

    Tomorrow, 14 December, Thursday

    Time Temperature Precipitation Wind Pressure Humidity
    00:00 -13°C° 0 mm 2 mps 765 mmHg 85%
    01:00 -13°C° 0 mm 2 mps 764 mmHg 84%
    02:00 -14°C° 0 mm 2 mps 764 mmHg 84%
    03:00 -14°C° 0 mm 2 mps 764 mmHg 83%
    04:00 -15°C° 0 mm 3 mps 763 mmHg 80%
    05:00 -16°C° 0 mm 3 mps 763 mmHg 77%
    06:00 -17°C° 0 mm 4 mps 763 mmHg 73%
    07:00 -17°C° 0 mm 4 mps 762 mmHg 70%
    08:00 -18°C° 0 mm 5 mps 761 mmHg 66%
    09:00 -18°C° 0 mm 6 mps 760 mmHg 62%
    10:00 -18°C° 0 mm 5 mps 759 mmHg 60%
    11:00 -18°C° 0 mm 5 mps 758 mmHg 58%
    12:00 -18°C° 0 mm 5 mps 756 mmHg 57%
    13:00 -17°C° 0 mm 5 mps 755 mmHg 55%
    14:00 -17°C° 0 mm 6 mps 754 mmHg 53%
    15:00 -16°C° 0 mm 6 mps 752 mmHg 51%
    16:00 -14°C° 0 mm 5 mps 751 mmHg 49%
    17:00 -14°C° 0 mm 5 mps 750 mmHg 47%
    18:00 -13°C° 0 mm 5 mps 749 mmHg 45%
    19:00 -10°C° 0 mm 4 mps 748 mmHg 45%
    20:00 -9°C° 0 mm 4 mps 747 mmHg 45%
    21:00 -7°C° 0 mm 3 mps 746 mmHg 45%
    22:00 -6°C° 0 mm 3 mps 746 mmHg 45%
    23:00 -5°C° 0 mm 3 mps 745 mmHg 44%

    Day after tomorrow, 15 December, Friday

    Time Temperature Precipitation Wind Pressure Humidity
    00:00 -5°C° 0 mm 3 mps 745 mmHg 43%
    01:00 -4°C° 0 mm 3 mps 745 mmHg 50%
    02:00 -2°C° 0 mm 3 mps 745 mmHg 57%
    03:00 -2°C° 0 mm 3 mps 745 mmHg 64%
    04:00 -3°C° 0.2 mm 4 mps 745 mmHg 71%
    05:00 -2°C° 0.2 mm 4 mps 745 mmHg 78%
    06:00 -2°C° 0.2 mm 5 mps 745 mmHg 85%
    07:00 -4°C° 0.1 mm 6 mps 745 mmHg 85%
    08:00 -4°C° 0.1 mm 7 mps 746 mmHg 84%
    09:00 -4°C° 0.1 mm 7 mps 746 mmHg 84%
    10:00 -4°C° 0 mm 7 mps 746 mmHg 82%
    11:00 -4°C° 0 mm 7 mps 746 mmHg 81%
    12:00 -6°C° 0 mm 7 mps 746 mmHg 79%
    13:00 -5°C° 0 mm 6 mps 745 mmHg 79%
    14:00 -5°C° 0 mm 6 mps 744 mmHg 79%
    15:00 -5°C° 0 mm 5 mps 743 mmHg 79%
    16:00 -5°C° 0 mm 5 mps 742 mmHg 75%
    17:00 -6°C° 0 mm 6 mps 741 mmHg 70%
    18:00 -6°C° 0 mm 6 mps 740 mmHg 65%
    19:00 -6°C° 0.2 mm 6 mps 738 mmHg 71%
    20:00 -5°C° 0.2 mm 6 mps 737 mmHg 76%
    21:00 -4°C° 0.2 mm 6 mps 736 mmHg 82%
    22:00 -4°C° 0.3 mm 6 mps 735 mmHg 83%
    23:00 -2°C° 0.3 mm 5 mps 735 mmHg 84%

    16 December, Saturday

    Time Temperature Precipitation Wind Pressure Humidity
    00:00 -2°C° 0.3 mm 5 mps 735 mmHg 85%
    01:00 -2°C° 0.3 mm 5 mps 735 mmHg 86%
    02:00 -4°C° 0.3 mm 6 mps 735 mmHg 86%
    03:00 -4°C° 0.3 mm 6 mps 735 mmHg 87%
    04:00 -4°C° 0.1 mm 6 mps 735 mmHg 84%
    05:00 -5°C° 0.1 mm 6 mps 736 mmHg 80%
    06:00 -5°C° 0.1 mm 6 mps 736 mmHg 77%
    07:00 -6°C° 0 mm 5 mps 736 mmHg 76%
    08:00 -6°C° 0 mm 5 mps 736 mmHg 76%
    09:00 -6°C° 0 mm 5 mps 736 mmHg 75%
    10:00 -6°C° 0 mm 5 mps 736 mmHg 74%
    11:00 -6°C° 0 mm 5 mps 736 mmHg 73%
    12:00 -8°C° 0 mm 6 mps 736 mmHg 73%
    13:00 -8°C° 0 mm 6 mps 736 mmHg 72%
    14:00 -8°C° 0 mm 6 mps 736 mmHg 70%
    15:00 -8°C° 0 mm 6 mps 736 mmHg 69%
    16:00 -8°C° 0 mm 6 mps 736 mmHg 69%
    17:00 -8°C° 0 mm 6 mps 736 mmHg 69%
    18:00 -8°C° 0 mm 6 mps 736 mmHg 69%
    19:00 -8°C° 0 mm 6 mps 737 mmHg 70%
    20:00 -8°C° 0 mm 6 mps 737 mmHg 72%
    21:00 -8°C° 0 mm 6 mps 737 mmHg 73%
    22:00 -8°C° 0 mm 6 mps 737 mmHg 74%
    23:00 -7°C° 0 mm 5 mps 738 mmHg 74%

    17 December, Sunday

    Time Temperature Precipitation Wind Pressure Humidity
    00:00 -7°C° 0 mm 5 mps 738 mmHg 75%
    01:00 -7°C° 0 mm 5 mps 738 mmHg 75%
    02:00 -8°C° 0 mm 5 mps 738 mmHg 76%
    03:00 -8°C° 0 mm 5 mps 738 mmHg 77%
    04:00 -8°C° 0 mm 5 mps 738 mmHg 77%
    05:00 -8°C° 0 mm 5 mps 738 mmHg 78%
    06:00 -8°C° 0 mm 5 mps 739 mmHg 78%
    07:00 -8°C° 0 mm 5 mps 739 mmHg 77%
    08:00 -8°C° 0 mm 5 mps 739 mmHg 77%
    09:00 -8°C° 0 mm 5 mps 739 mmHg 77%
    10:00 -8°C° 0 mm 5 mps 739 mmHg 77%
    11:00 -8°C° 0 mm 4 mps 738 mmHg 76%
    12:00 -8°C° 0 mm 4 mps 738 mmHg 76%
    13:00 -9°C° 0 mm 4 mps 738 mmHg 74%
    14:00 -10°C° 0 mm 4 mps 737 mmHg 72%
    15:00 -10°C° 0 mm 4 mps 737 mmHg 70%
    16:00 -9°C° 0 mm 3 mps 736 mmHg 68%
    17:00 -9°C° 0 mm 3 mps 736 mmHg 67%
    18:00 -10°C° 0 mm 3 mps 736 mmHg 65%
    19:00 -10°C° 0 mm 3 mps 735 mmHg 64%
    20:00 -10°C° 0 mm 3 mps 735 mmHg 64%
    21:00 -10°C° 0 mm 3 mps 735 mmHg 63%
    22:00 -10°C° 0 mm 3 mps 735 mmHg 62%
    23:00 -9°C° 0 mm 2 mps 735 mmHg 62%

    18 December, Monday

    Time Temperature Precipitation Wind Pressure Humidity
    00:00 -9°C° 0 mm 2 mps 735 mmHg 62%
    01:00 -9°C° 0 mm 2 mps 735 mmHg 62%
    02:00 -9°C° 0 mm 2 mps 735 mmHg 62%
    03:00 -9°C° 0 mm 2 mps 735 mmHg 62%
    04:00 -10°C° 0 mm 2 mps 735 mmHg 62%
    05:00 -10°C° 0 mm 2 mps 735 mmHg 62%
    06:00 -12°C° 0 mm 3 mps 735 mmHg 62%
    07:00 -12°C° 0 mm 3 mps 735 mmHg 62%
    08:00 -12°C° 0 mm 3 mps 736 mmHg 62%
    09:00 -12°C° 0 mm 3 mps 736 mmHg 63%
    10:00 -12°C° 0 mm 3 mps 735 mmHg 63%
    11:00 -12°C° 0 mm 3 mps 735 mmHg 64%
    12:00 -12°C° 0 mm 3 mps 735 mmHg 64%
    13:00 -12°C° 0 mm 3 mps 735 mmHg 65%
    14:00 -12°C° 0 mm 4 mps 735 mmHg 65%
    15:00 -14°C° 0 mm 4 mps 735 mmHg 65%
    16:00 -13°C° 0 mm 3 mps 735 mmHg 65%
    17:00 -13°C° 0 mm 3 mps 735 mmHg 65%
    18:00 -13°C° 0 mm 3 mps 735 mmHg 65%
    19:00 -13°C° 0 mm 3 mps 735 mmHg 65%
    20:00 -13°C° 0 mm 3 mps 735 mmHg 65%
    21:00 -13°C° 0 mm 3 mps 735 mmHg 65%
    22:00 -13°C° 0 mm 3 mps 736 mmHg 66%
    23:00 -13°C° 0 mm 3 mps 736 mmHg 68%
    Show more